Location: Unspecified
(58.7730°N, 5.8460°E)
Time: 19:22:36
(UTC+02:00)

Okean 3 - Visible Passes

Search period start: 24 April 2014 00:00
Search period end: 04 May 2014 00:00
Orbit: 583 x 612 km, 82.5° (Epoch: 23 April)

Date Brightness Start Highest point End Pass type
(mag) Time Alt. Az. Time Alt. Az. Time Alt. Az.
24 Apr 5.9 23:27:06 10° WSW 23:30:32 23° WNW 23:33:58 10° N visible
25 Apr 3.5 21:59:04 10° SSW 22:03:20 89° WNW 22:07:36 10° NNE visible
25 Apr 6.3 23:38:29 10° W 23:41:25 18° NW 23:44:21 10° NNW visible
26 Apr 4.0 22:09:47 10° SSW 22:14:00 64° WNW 22:18:14 10° N visible
26 Apr 6.5 23:50:06 10° W 23:52:20 14° NW 23:54:35 10° NNW visible
27 Apr 4.7 22:20:39 10° SW 22:24:44 45° WNW 22:28:49 10° N visible
28 Apr 6.9 00:02:16 10° WNW 00:03:18 11° NW 00:04:21 10° NNW visible
28 Apr 5.4 22:31:38 10° SW 22:35:29 33° WNW 22:39:21 10° N visible
29 Apr 6.0 22:42:45 10° WSW 22:46:17 25° WNW 22:49:50 10° N visible
30 Apr 6.4 22:54:02 10° WSW 22:57:08 19° WNW 23:00:14 10° N visible
01 May 6.6 23:05:33 10° W 23:08:01 15° NW 23:10:29 10° NNW visible
02 May 7.0 23:17:26 10° WNW 23:18:56 12° NW 23:20:27 10° NNW visible
